Powrót do katalogu

SL-14 R/B

AktywnyPO
NORAD 18422·ROCKET BODY·🇷🇺 Russia

Wystrzelony Oct 20, 1987 z Plesetsk Cosmodrome

Loading…

Następne Przeloty (najbliższe 24 godziny)

TLE

ŚwieżeSource: Space-Track

Epoka: Sep 14, 2026, 22:20 UTC

1 18422U 87088B   26257.93092394  .00000308  00000-0  32781-4 0  9995
2 18422  82.5076 249.1467 0020224 104.1220 256.2245 14.85460404 81393

Śledź SL-14 R/B w czasie rzeczywistym z AllMySat

Download on the App Store